Showing default

OPS 2222, 3334

Orbit data source: Space-Track

OPS 2222, 3334 is an American payload satellite in GEO that was launched on Tue, 06 Aug 1968 UTC via an ATLAS SLV-3A AGENA D launch vehicle from the Air Force Eastern Test Range (AFETR). Payload-class satellites include a variety of spacecraft equipped with specific instruments for various scientific and technological missions. These include communications satellites like Starlink; space stations such as the ISS; scientific satellites like the Hubble; Earth observation satellites from companies like Planet Labs, Umbra, and HawkEye 360; GPS; miniature CubeSats for education and research; and military/defense satellites.

Not visible in the next 10 days
Identifier
3334, 1968-063A
Orbit
GEO
Country
Flag of USUS
Related business
Manufacturer
LMSC?
Mission
Non-operational spacecraft
Bus & Motor
CANYON, Unknown motor
Mass
~240 kg wet, ~200 kg dry
Launch date (UTC)
1968-08-06 (57 years ago)
Launch vehicle
ATLAS SLV-3A AGENA D
Launch site
Air Force Eastern Test Range (AFETR)
Object type
Payload
Rocket body
Debris
Shape & HBR
Unknown
Radar Cross Section
RCS unknown

Expand to show TLE details & history
Last TLE update: 9 hours ago

TLE from 9 hours ago
0 OPS 2222
1 03334U 68063A   25310.17129231 -.00000255  00000-0  00000-0 0  9996
2 03334   6.4926 284.7548 0907929 225.5943 298.0398  0.99255563 23914
Epoch: 2025-11-06T04:06Z
TLE epoch observation values (Epoch: 2025-11-06T04:06:39.655Z)
Latitude
2.84309°
Longitude
-28.43493°
Altitude
34,572.01 km
Speed
3.175 km/s
True Right ascension
05h 15m 27s
True Declination
2° 50' 24"
Sunlit
Object was in daylight at epoch
Visualization orbit readout
Latitude
Unknown
Longitude
Unknown
Altitude
Unknown
Speed
Unknown
Apparent Right ascension
Unknown
Apparent Declination
Unknown
Sunlit
N/A
Visualization observer readout
Local Sidereal Time
09:17:46
Azimuth
Unknown
Elevation
Unknown
Doppler factor
Unknown
Orbital elements
Apogee altitude
39,929.403 km
Perigee altitude
32,220.523 km
Semi-major axis
42,453.1 km
Eccentricity
0.09079
Inclination
6.4926°
RAAN
284.7548°
Arg. of periapsis
225.5943°
True anomaly
288.3868°
Mean anomaly
298.0398°
Eccentric anomaly
293.26058°
Mean motion
0.24813 °/min
Orbital period
1,450.85 mins
BSTAR
0
Loading maneuver chart data...
Computing Atmospheric mass density...
Loading historical data...
Loading historical data...
Loading historical data...
Loading historical data...
Loading historical data...
Loading historical data...
Loading historical data...
Other satellites on launch #63 in the year 1968 (1968-08-06 UTC)

Documentation

Showing up to 5 results
|